Location: Bats
(43.6587°N, 0.4584°W)
Time: 09:51:59
(UTC+00:00)

SL-4 R/B - Pass Details

Date: 12 January 2026
Orbit: 383 x 518 km, 51.6° (Epoch: 18 February)

Event Time Altitude Azimuth Distance (km) Brightness Sun altitude
Rises 18:40:20 0° 297° (WNW) 2,638 6.3 -20.0°
Reaches altitude 10° 18:42:40 10° 290° (WNW) 1,735 5.4 -20.4°
Maximum altitude 18:46:20 37° 222° (SW) 785 3.2 -21.0°
Enters shadow 18:48:25 20° 166° (SSE) 1,169 3.6 -21.4°
